Location: Dehesa de la Cepeda
(40.6574°N, 4.3013°W)
Time: 19:02:42
(UTC+00:00)

USA 215 - Pass Details

Date: 05 July 2020
Orbit: 1102 x 1106 km, 123.0° (Epoch: 31 July)

Event Time Altitude Azimuth Distance (km) Brightness Sun altitude
Rises 21:01:12 0° 50° (NE) 3,923 6.1 -11.4°
Reaches altitude 10° 21:03:46 10° 55° (NE) 2,963 5.4 -11.7°
Maximum altitude 21:10:08 53° 131° (SE) 1,328 3.3 -12.6°
Drops below altitude 10° 21:16:29 10° 208° (SSW) 2,951 5.3 -13.4°
Sets 21:19:01 0° 212° (SSW) 3,906 6.0 -13.7°
